Grayling, MI

4:08 AM EDT on July 21, 2017 (GMT -0400)
Grayling

Weather History for KGOV - October, 2012

Change the Weather History Date:

Friday, October 12, 2012

  Actual Average (KHTL) Record (KHTL)
Temperature  
Mean Temperature 34 °F -  
Max Temperature 41 °F 57 °F 84 °F (1938)
Min Temperature 27 °F 37 °F 20 °F (1936)
Degree Days  
Heating Degree Days 31    
Moisture  
Dew Point 32 °F    
Average Humidity 93    
Maximum Humidity 100    
Minimum Humidity 57    
Precipitation  
Precipitation 0.00 in - - ()
Sea Level Pressure  
Sea Level Pressure 30.32 in    
Wind  
Wind Speed 4 mph (NW)    
Max Wind Speed 9 mph    
Max Gust Speed 22 mph    
Visibility 10 miles    
Events Rain , Snow    
Averages and records for this station are not official NWS values.
T = Trace of Precipitation, MM = Missing Value Source: NWS Daily Summary

Daily Weather History Graph

Daily Weather History Graph

Search for Another Location

Airport or City:

Trip Planner

Search our weather history database for the weather conditions in past years. The results will help you decide how hot, cold, wet, or windy it might be!

Date:

Astronomy

Oct. 12, 2012 Rise Set
Actual Time 7:51 AM EDT 6:58 PM EDT
Civil Twilight 7:21 AM EDT 7:28 PM EDT
Nautical Twilight 6:47 AM EDT 8:01 PM EDT
Astronomical Twilight 6:14 AM EDT 8:35 PM EDT
Moon 4:26 AM EDT (10/12) 5:13 PM EDT (10/12)
Length of Visible Light 12h 06m
Length of Day
11h 07m
Waning Crescent, 11% of the Moon is Illuminated
Oct 12
Waning Crescent
Oct 15
New
Oct 21
First Quarter
Oct 29
Full
Nov 6
Last Quarter

Hourly Weather History & Observations

Time (EDT) Temp. Windchill Dew Point Humidity Pressure Visibility Wind Dir Wind Speed Gust Speed Precip Events Conditions
12:10 AM 36.9 °F 33.1 °F 35.1 °F 93% 30.16 in 10.0 mi NNW 4.6 mph - N/A   Scattered Clouds
12:30 AM 35.6 °F 29.2 °F 33.8 °F 93% 30.17 in 10.0 mi NW 8.1 mph - N/A   Clear
12:50 AM 36.5 °F 31.0 °F 35.1 °F 95% 30.18 in 5.0 mi NW 6.9 mph 21.9 mph N/A Snow Light Snow
1:10 AM 35.8 °F 30.9 °F 34.7 °F 96% 30.19 in 10.0 mi NW 5.8 mph - N/A   Scattered Clouds
1:30 AM 37.0 °F 32.4 °F 36.5 °F 98% 30.19 in 10.0 mi NW 5.8 mph - N/A Rain Light Rain
2:11 AM 34.7 °F 28.8 °F 34.3 °F 99% 30.21 in 10.0 mi West 6.9 mph - N/A   Clear
2:31 AM 34.7 °F 30.6 °F 34.7 °F 100% 30.22 in 10.0 mi West 4.6 mph - N/A   Scattered Clouds
2:51 AM 34.7 °F 29.6 °F 34.7 °F 100% 30.23 in 10.0 mi West 5.8 mph - N/A   Scattered Clouds
3:11 AM 34.7 °F 29.6 °F 34.3 °F 99% 30.23 in 10.0 mi WNW 5.8 mph - N/A   Clear
3:31 AM 34.7 °F 27.5 °F 33.8 °F 97% 30.24 in 10.0 mi NW 9.2 mph - N/A   Clear
3:51 AM 34.7 °F 28.1 °F 33.8 °F 97% 30.25 in 10.0 mi NW 8.1 mph - N/A   Clear
4:12 AM 34.7 °F 28.8 °F 33.8 °F 97% 30.26 in 10.0 mi NW 6.9 mph - N/A   Clear
4:32 AM 34.7 °F 31.8 °F 33.8 °F 97% 30.27 in 10.0 mi NNW 3.5 mph - N/A   Clear
4:52 AM 34.3 °F - 33.8 °F 98% 30.28 in 10.0 mi Calm Calm - N/A   Clear
5:12 AM 31.1 °F - 31.1 °F 100% 30.29 in 10.0 mi Calm Calm - N/A   Clear
5:32 AM 32.0 °F 28.7 °F 32.0 °F 100% 30.30 in 10.0 mi West 3.5 mph - N/A   Scattered Clouds
5:52 AM 32.0 °F 27.5 °F 32.0 °F 100% 30.31 in 10.0 mi NW 4.6 mph - N/A   Scattered Clouds
6:12 AM 32.0 °F 27.5 °F 32.0 °F 100% 30.32 in 10.0 mi NW 4.6 mph - N/A   Scattered Clouds
6:53 AM 30.0 °F 26.5 °F 30.0 °F 100% 30.33 in 10.0 mi NW 3.5 mph - N/A   Clear
7:13 AM 31.8 °F - 31.8 °F 100% 30.34 in 10.0 mi Calm Calm - N/A   Clear
7:33 AM 29.3 °F - 29.3 °F 100% 30.35 in 10.0 mi Calm Calm - N/A   Clear
7:53 AM 27.3 °F - 27.3 °F 100% 30.35 in 10.0 mi Calm Calm - N/A   Clear
8:13 AM 27.3 °F - 27.3 °F 100% 30.36 in 10.0 mi Calm Calm - N/A   Clear
8:23 AM 28.2 °F - 28.2 °F 100% 30.37 in 7.0 mi Calm Calm - N/A   Clear
8:59 AM 32.0 °F - 32.0 °F 100% 30.39 in 10.0 mi Calm Calm - N/A   Clear
9:16 AM 33.8 °F - 33.8 °F 100% 30.40 in 10.0 mi Calm Calm - N/A   Clear
9:36 AM 35.6 °F - 35.6 °F 100% 30.41 in 10.0 mi Calm Calm - N/A   Clear
9:56 AM 37.4 °F - 33.8 °F 87% 30.42 in 10.0 mi Calm Calm - N/A   Clear
10:16 AM 37.4 °F - 33.8 °F 87% 30.42 in 10.0 mi Calm Calm - N/A   Clear
10:56 AM 41.0 °F - 30.2 °F 65% 30.43 in 10.0 mi Calm Calm - N/A   Clear
11:17 AM 41.0 °F 38.0 °F 30.2 °F 65% 30.42 in 10.0 mi East 4.6 mph - N/A   Clear
6:56 PM 41.0 °F - 26.6 °F 57% 30.37 in - Calm Calm - N/A   Unknown
7:10 PM 39.6 °F - 27.9 °F 63% 30.37 in 10.0 mi Calm Calm - N/A   Unknown
7:30 PM 36.9 °F - 30.4 °F 77% 30.37 in 10.0 mi Calm Calm - N/A   Scattered Clouds
7:50 PM 34.7 °F - 30.0 °F 83% 30.36 in 10.0 mi Calm Calm - N/A   Clear
8:11 PM 34.5 °F - 31.8 °F 90% 30.36 in 10.0 mi Calm Calm - N/A   Clear
8:31 PM 32.9 °F - 30.6 °F 91% 30.36 in 10.0 mi Calm Calm - N/A   Clear
8:51 PM 30.7 °F - 28.9 °F 93% 30.36 in 10.0 mi Calm Calm - N/A   Clear
9:11 PM 30.2 °F - 29.5 °F 97% 30.36 in 10.0 mi Calm Calm - N/A   Clear
9:31 PM 29.8 °F - 29.5 °F 99% 30.34 in 10.0 mi Calm Calm - N/A   Clear
10:11 PM 30.6 °F - 29.3 °F 95% 30.35 in 10.0 mi Calm Calm - N/A   Clear
10:31 PM 31.5 °F - 30.7 °F 97% 30.35 in 10.0 mi Calm Calm - N/A   Clear
10:51 PM 30.4 °F - 29.8 °F 98% 30.35 in 10.0 mi Calm Calm - N/A   Clear
11:12 PM 30.9 °F - 29.7 °F 95% 30.34 in 10.0 mi Calm Calm - N/A   Clear
11:52 PM 30.0 °F - 29.3 °F 97% 30.34 in 10.0 mi Calm Calm - N/A   Clear